Silver City, NM

5:04 AM MDT on March 30, 2017 (GMT -0600)
Grant County

Weather History for KSVC - December, 2012

Change the Weather History Date:

Saturday, December 29, 2012

  Actual Average (KDMN) Record (KDMN)
Temperature  
Mean Temperature 26 °F -  
Max Temperature 42 °F 53 °F 71 °F (1955)
Min Temperature 10 °F 27 °F 7 °F (1966)
Degree Days  
Heating Degree Days 39    
Moisture  
Dew Point 9 °F    
Average Humidity 47    
Maximum Humidity 79    
Minimum Humidity 25    
Precipitation  
Precipitation 0.00 in - - ()
Sea Level Pressure  
Sea Level Pressure 30.18 in    
Wind  
Wind Speed 8 mph (ENE)    
Max Wind Speed 18 mph    
Max Gust Speed 24 mph    
Visibility 10 miles    
Events      
Averages and records for this station are not official NWS values.
T = Trace of Precipitation, MM = Missing Value Source: NWS Daily Summary

Daily Weather History Graph

Daily Weather History Graph

Search for Another Location

Airport or City:

Trip Planner

Search our weather history database for the weather conditions in past years. The results will help you decide how hot, cold, wet, or windy it might be!

Date:

Astronomy

Dec. 29, 2012 Rise Set
Actual Time 7:14 AM MST 5:16 PM MST
Civil Twilight 6:46 AM MST 5:43 PM MST
Nautical Twilight 6:16 AM MST 6:13 PM MST
Astronomical Twilight 5:46 AM MST 6:43 PM MST
Moon 6:46 PM MST (12/29) 7:54 AM MST (12/29)
Length of Visible Light 10h 56m
Length of Day
10h 01m
Full, 98% of the Moon is Illuminated
Dec 29
Full
Jan 4
Last Quarter
Jan 11
New
Jan 18
First Quarter
Jan 26
Full

Hourly Weather History & Observations

Time (MST) Temp. Windchill Dew Point Humidity Pressure Visibility Wind Dir Wind Speed Gust Speed Precip Events Conditions
12:15 AM 21.2 °F 9.5 °F 14.0 °F 74% 30.19 in 10.0 mi NNE 11.5 mph - N/A   Clear
12:35 AM 23.0 °F 13.1 °F 14.0 °F 68% 30.17 in 10.0 mi North 9.2 mph - N/A   Clear
12:55 AM 19.4 °F 12.8 °F 12.2 °F 74% 30.18 in 10.0 mi North 4.6 mph - N/A   Clear
1:15 AM 19.4 °F 11.5 °F 10.4 °F 68% 30.19 in 10.0 mi WNW 5.8 mph - N/A   Clear
1:35 AM 15.8 °F 8.6 °F 8.6 °F 73% 30.19 in 10.0 mi NW 4.6 mph - N/A   Clear
1:55 AM 14.0 °F 5.1 °F 8.6 °F 79% 30.19 in 10.0 mi NNW 5.8 mph - N/A   Clear
2:15 AM 14.0 °F 5.1 °F 6.8 °F 73% 30.19 in 10.0 mi NNW 5.8 mph - N/A   Clear
2:35 AM 14.0 °F 2.9 °F 6.8 °F 73% 30.20 in 10.0 mi North 8.1 mph - N/A   Clear
2:55 AM 14.0 °F 2.0 °F 6.8 °F 73% 30.19 in 10.0 mi NNW 9.2 mph - N/A   Clear
3:15 AM 14.0 °F 2.9 °F 6.8 °F 73% 30.19 in 10.0 mi North 8.1 mph - N/A   Clear
3:35 AM 14.0 °F 3.9 °F 6.8 °F 73% 30.19 in 10.0 mi North 6.9 mph - N/A   Clear
3:55 AM 14.0 °F 5.1 °F 6.8 °F 73% 30.19 in 10.0 mi NW 5.8 mph - N/A   Clear
4:15 AM 15.8 °F 6.1 °F 6.8 °F 68% 30.19 in 10.0 mi NW 6.9 mph - N/A   Clear
4:35 AM 17.6 °F 9.3 °F 6.8 °F 63% 30.19 in 10.0 mi NW 5.8 mph - N/A   Clear
4:55 AM 15.8 °F 5.1 °F 5.0 °F 62% 30.20 in 10.0 mi NW 8.1 mph - N/A   Clear
5:15 AM 15.8 °F 6.1 °F 5.0 °F 62% 30.20 in 10.0 mi NNW 6.9 mph - N/A   Clear
5:35 AM 12.2 °F 2.9 °F 5.0 °F 73% 30.20 in 10.0 mi NW 5.8 mph - N/A   Clear
6:15 AM 14.0 °F 2.9 °F 6.8 °F 73% 30.22 in 10.0 mi NW 8.1 mph - N/A   Clear
6:35 AM 14.0 °F 5.1 °F 5.0 °F 67% 30.23 in 10.0 mi North 5.8 mph - N/A   Clear
6:55 AM 14.0 °F 5.1 °F 5.0 °F 67% 30.23 in 10.0 mi North 5.8 mph - N/A   Clear
7:15 AM 10.4 °F - 5.0 °F 79% 30.23 in 10.0 mi Calm Calm - N/A   Clear
7:35 AM 10.4 °F 4.0 °F 5.0 °F 79% 30.23 in 10.0 mi NW 3.5 mph - N/A   Clear
7:55 AM 17.6 °F 10.7 °F 8.6 °F 68% 30.24 in 10.0 mi NW 4.6 mph - N/A   Clear
8:15 AM 24.8 °F - 12.2 °F 59% 30.25 in 10.0 mi Calm Calm - N/A   Clear
8:35 AM 28.4 °F - 10.4 °F 47% 30.26 in 10.0 mi Calm Calm - N/A   Clear
8:55 AM 30.2 °F - 10.4 °F 44% 30.26 in 10.0 mi Calm Calm - N/A   Clear
9:15 AM 32.0 °F - 10.4 °F 41% 30.27 in 10.0 mi Calm Calm - N/A   Clear
9:35 AM 35.6 °F 29.9 °F 10.4 °F 35% 30.27 in 10.0 mi SE 6.9 mph - N/A   Clear
9:55 AM 35.6 °F 28.0 °F 10.4 °F 35% 30.27 in 10.0 mi SE 10.4 mph - N/A   Clear
10:15 AM 37.4 °F 29.8 °F 10.4 °F 33% 30.28 in 10.0 mi SE 11.5 mph - N/A   Clear
10:35 AM 37.4 °F 29.8 °F 10.4 °F 33% 30.28 in 10.0 mi SE 11.5 mph 17.3 mph N/A   Clear
10:55 AM 39.2 °F 32.0 °F 10.4 °F 31% 30.27 in 10.0 mi SE 11.5 mph 16.1 mph N/A   Clear
11:15 AM 39.2 °F 33.6 °F 12.2 °F 33% 30.26 in 10.0 mi SE 8.1 mph 18.4 mph N/A   Clear
11:55 AM 41.0 °F 32.5 °F 10.4 °F 29% 30.22 in 10.0 mi SSE 17.3 mph - N/A   Clear
12:15 PM 41.0 °F 33.5 °F 10.4 °F 29% 30.21 in 10.0 mi SSE 13.8 mph 19.6 mph N/A   Clear
12:35 PM 41.0 °F 32.5 °F 10.4 °F 29% 30.20 in 10.0 mi SSE 17.3 mph 24.2 mph N/A   Clear
12:55 PM 41.0 °F 32.2 °F 10.4 °F 29% 30.19 in 10.0 mi SE 18.4 mph 21.9 mph N/A   Clear
1:15 PM 41.0 °F 34.7 °F 10.4 °F 29% 30.18 in 10.0 mi SSE 10.4 mph - N/A   Clear
1:35 PM 42.8 °F 35.4 °F 10.4 °F 27% 30.17 in 10.0 mi SSE 15.0 mph 21.9 mph N/A   Clear
1:55 PM 41.0 °F 32.5 °F 8.6 °F 26% 30.15 in 10.0 mi SE 17.3 mph 23.0 mph N/A   Clear
2:15 PM 42.8 °F 34.8 °F 8.6 °F 25% 30.14 in 10.0 mi SE 17.3 mph 20.7 mph N/A   Clear
2:35 PM 42.8 °F 35.1 °F 8.6 °F 25% 30.14 in 10.0 mi SE 16.1 mph 24.2 mph N/A   Clear
2:55 PM 42.8 °F 35.1 °F 10.4 °F 27% 30.13 in 10.0 mi SE 16.1 mph 23.0 mph N/A   Clear
3:15 PM 42.8 °F 35.8 °F 10.4 °F 27% 30.13 in 10.0 mi SE 13.8 mph 21.9 mph N/A   Clear
3:35 PM 42.8 °F 35.4 °F 8.6 °F 25% 30.13 in 10.0 mi SE 15.0 mph 20.7 mph N/A   Clear
3:55 PM 42.8 °F 35.4 °F 8.6 °F 25% 30.14 in 10.0 mi SE 15.0 mph - N/A   Clear
4:15 PM 42.8 °F 35.1 °F 8.6 °F 25% 30.14 in 10.0 mi SE 16.1 mph 20.7 mph N/A   Clear
4:35 PM 41.0 °F 34.3 °F 8.6 °F 26% 30.14 in 10.0 mi SSE 11.5 mph - N/A   Clear
4:55 PM 39.2 °F 33.6 °F 8.6 °F 28% 30.14 in 10.0 mi SE 8.1 mph - N/A   Clear
5:15 PM 37.4 °F 31.4 °F 8.6 °F 30% 30.14 in 10.0 mi SE 8.1 mph - N/A   Clear
5:35 PM 35.6 °F 28.6 °F 8.6 °F 33% 30.14 in 10.0 mi SE 9.2 mph - N/A   Clear
5:55 PM 33.8 °F 28.6 °F 6.8 °F 32% 30.14 in 10.0 mi East 5.8 mph - N/A   Clear
6:35 PM 32.0 °F 24.8 °F 8.6 °F 38% 30.14 in 10.0 mi East 8.1 mph - N/A   Clear
6:55 PM 32.0 °F 26.4 °F 10.4 °F 41% 30.14 in 10.0 mi ENE 5.8 mph - N/A   Clear
7:15 PM 32.0 °F 25.6 °F 8.6 °F 38% 30.14 in 10.0 mi NE 6.9 mph - N/A   Clear
7:35 PM 32.0 °F 24.8 °F 8.6 °F 38% 30.14 in 10.0 mi NE 8.1 mph - N/A   Clear
7:55 PM 32.0 °F 25.6 °F 8.6 °F 38% 30.13 in 10.0 mi NE 6.9 mph - N/A   Clear
8:15 PM 32.0 °F 25.6 °F 10.4 °F 41% 30.13 in 10.0 mi NE 6.9 mph - N/A   Clear
8:35 PM 33.8 °F 27.7 °F 10.4 °F 38% 30.13 in 10.0 mi NE 6.9 mph - N/A   Clear
8:55 PM 32.0 °F 25.6 °F 8.6 °F 38% 30.13 in 10.0 mi ENE 6.9 mph - N/A   Clear
9:15 PM 32.0 °F 25.6 °F 8.6 °F 38% 30.14 in 10.0 mi ENE 6.9 mph - N/A   Clear
9:35 PM 32.0 °F 24.8 °F 10.4 °F 41% 30.13 in 10.0 mi NE 8.1 mph - N/A   Clear
9:55 PM 32.0 °F 24.8 °F 10.4 °F 41% 30.13 in 10.0 mi NE 8.1 mph - N/A   Clear
10:15 PM 32.0 °F 25.6 °F 10.4 °F 41% 30.13 in 10.0 mi NE 6.9 mph - N/A   Clear
10:35 PM 32.0 °F 25.6 °F 10.4 °F 41% 30.12 in 10.0 mi NE 6.9 mph - N/A   Clear
10:55 PM 32.0 °F 24.2 °F 10.4 °F 41% 30.11 in 10.0 mi NE 9.2 mph - N/A   Clear
11:15 PM 32.0 °F 25.6 °F 10.4 °F 41% 30.11 in 10.0 mi NE 6.9 mph - N/A   Clear
11:35 PM 32.0 °F 27.5 °F 10.4 °F 41% 30.11 in 10.0 mi NE 4.6 mph - N/A   Clear
11:55 PM 32.0 °F 26.4 °F 10.4 °F 41% 30.10 in 10.0 mi NE 5.8 mph - N/A   Clear